User: anonymous   Login
Location: Unspecified
(0.0000°N, 0.0000°E)
Time: 08:57:43
(UTC+00:00)
Language:

STARLINK-33712 - Orbit

View from above orbital plane
View from above orbital plane
View from above satellite
View from above satellite

Ground track
Ground track

The orbit is defined by the following mean orbital elements,

1 63797U          26145.53678728 +.00000000 +00000-0 +63921-3 0 00003
2 63797  43.0017 342.1768 0001108 297.5528  62.5211 15.27588147    03
Epoch (UTC): 25 May 2026 12:52:58
Eccentricity: 0.0001108
inclination: 43.0017°
perigee height: 482 km
apogee height: 484 km
right ascension of ascending node: 342.1768°
argument of perigee: 297.5528°
revolutions per day: 15.27588147
mean anomaly at epoch: 62.5211°

The dashed part of the orbit path shows where the satellite is in the earth's shadow,  

DLR